Location: Cahas Mountain Overlook
(37.0833°N, 80.1000°W)
Time: 12:31:42
(UTC-04:00)

Courier 1B - Pass Details

Date: 15 December 2023
Orbit: 962 x 1208 km, 28.3° (Epoch: 19 September)

Event Time Altitude Azimuth Distance (km) Brightness Sun altitude
Rises 06:07:13 0° 245° (WSW) 4,072 - -15.3°
Exits shadow 06:08:53 - 241° (WSW) 3,532 10.0 -15.0°
Reaches altitude 10° 06:10:18 10° 238° (WSW) 3,087 9.7 -14.7°
Maximum altitude 06:17:17 39° 172° (S) 1,626 8.9 -13.4°
Drops below altitude 10° 06:23:55 10° 106° (ESE) 2,935 11.5 -12.2°
Sets 06:26:46 0° 99° (E) 3,853 12.5 -11.6°
